Regional Weather Roundup
Issued by NWS

Home | Current Version | Previous Version | Text Only | Print | Product List | Glossary Off
Versions: 1 2 3 4 5 6 7 8 9 10 11 12 13 14 15 16 17 18 19 20 21 22 23 24 25 26 27 28 29 30 31 32 33 34 35 36 37 38 39 40 41 42 43 44 45 46 47 48 49 50

000
ASUS43 KIND 300809
RWRIN

WEATHER ROUNDUP FOR INDIANA
NATIONAL WEATHER SERVICE INDIANAPOLIS IN
400 AM EDT SAT MAY 30 2015

NOTE: "FAIR" INDICATES FEW OR NO CLOUDS BELOW 12,000 FEET WITH NO
SIGNIFICANT WEATHER AND/OR OBSTRUCTIONS TO VISIBILITY.

* - STATION DOES NOT REPORT WEATHER SUCH AS PRECIPITATION OR FOG.

+ - STATION NOT QUALITY CONTROLLED BY THE NATIONAL WEATHER SERVICE.
    USE DATA WITH CAUTION...ESPECIALLY DEWPOINT AND RELATIVE
    HUMIDITY OBSERVATIONS.

INZ001>003-010>013-019-020-300900-
NORTHWEST INDIANA

CITY           SKY/WX    TMP DP  RH WIND       PRES   REMARKS
GARY /AIRPORT/ CLOUDY    71  66  84 SW5       29.95S
KNOX *+        MOCLDY    68  64  88 SW6       29.96F
LA PORTE +     CLOUDY    70  66  88 SW8       29.97F
MICHIGAN CITY+ CLOUDY    68  66  94 S5        29.96S
MONTICELLO +   CLOUDY    69  65  88 SW6       29.99R
RENSSELAER +   CLOUDY    70  66  88 S8        29.97F
VALPARAISO     CLOUDY    69  65  86 SW9       29.97S

$$

LMZ046-743>745-300900-
SOUTHERN LAKE MICHIGAN

STATION/POSITION TIME  TEMP    WIND        PRES    WAVE
                       AIR SEA DIR/SP/G            HT
                 (UTC) (F)     (DEG/KT/KT) (MB)    (FT)
BURNS HARBOR     0800   70     210/ 12/ 15 1014.6S
MICHIGAN CITY    0800   69     180/ 13/ 16   N/A
5NW MICH CITY    0800   63 56  230/  8/ 10   N/A     1

$$

INZ004-005-014>016-021>024-300900-
NORTH CENTRAL INDIANA

CITY           SKY/WX    TMP DP  RH WIND       PRES   REMARKS
GOSHEN         PTCLDY    70  65  84 SW7       29.97S
LOGANSPORT +   MOCLDY    70  63  78 SW6       30.01S
PERU/GRISSOM   PTCLDY    68  65  89 SW8       29.99S
ROCHESTER +    MOCLDY    73  68  83 SW7       29.99S
SOUTH BEND     MOCLDY    70  66  87 SW7       29.96F
WARSAW +       PTCLDY    70  64  83 SW5       29.99S

$$

INZ006>009-017-018-025>027-300900-
NORTHEAST INDIANA

CITY           SKY/WX    TMP DP  RH WIND       PRES   REMARKS
ANGOLA *+      CLEAR     70  63  78 SW7       29.98S
AUBURN +       PTCLDY    70  63  78 SW5       30.00S
FORT WAYNE     MOCLDY    67  64  90 SW8       30.00S
HUNTINGTON +   CLEAR     68  64  87 SW3       30.00R

$$

INZ028-029-035-036-043>045-051>053-300900-
WEST CENTRAL INDIANA

CITY           SKY/WX    TMP DP  RH WIND       PRES   REMARKS
CRAWFORDSVL +  MOCLDY    66  62  85 S5        30.00F
GREENCASTLE +  PTCLDY    68  63  83 S3        30.01F
LAFAYETTE      CLOUDY    68  64  87 CALM      29.98F
TERRE HAUTE    PTCLDY    68  66  93 S5        30.00F

$$

INZ030>032-037>040-046>048-054>057-064-065-300900-
CENTRAL INDIANA

CITY           SKY/WX    TMP DP  RH WIND       PRES   REMARKS
CP ATTERBURY + CLEAR     66  64  94 S3        30.03F
FISHERS *+     CLEAR     68  66  94 S9        30.02S
FRANKFORT +    MOCLDY    69  69 100 S3        30.02S
GREENWOOD *+   PTCLDY    70  64  83 SW6       30.03S
INDIANAPOLIS   PTCLDY    69  64  84 S7        30.00S
-EAGLE CREEK   CLEAR     69  65  86 S5        30.01S
KOKOMO *+      PTCLDY    70  64  83 SW8       30.00S
MARION +       CLEAR     68  63  84 S8        30.01S
MT COMFORT *+  MOCLDY    70  70 100 S6        30.03S
SHELBYVILLE    CLEAR     71  65  81 S12       30.02S
ZIONSVILLE +   PTCLDY    69  64  82 S5        30.02S

$$

INZ033-034-041-042-049-050-058-059-300900-
EAST CENTRAL INDIANA

CITY           SKY/WX    TMP DP  RH WIND       PRES   REMARKS
MUNCIE         MOCLDY    71  65  81 S6        30.02R

$$

INZ060-061-067>069-081>083-085>088-300900-
SOUTHWEST INDIANA

CITY           SKY/WX    TMP DP  RH WIND       PRES   REMARKS
EVANSVILLE     CLEAR     71  67  87 S5        30.02F
HUNTINGBURG *+ CLEAR     70  66  88 S3        30.04S
WASHINGTON +   CLEAR     68  65  88 S5        30.00F

$$

INZ062-063-066-070>080-084-089>092-300900-
SOUTH CENTRAL AND SOUTHEAST INDIANA

CITY           SKY/WX    TMP DP  RH WIND       PRES   REMARKS
BLOOMINGTON    CLEAR     69  66  90 S6        30.02F
MADISON *+     CLEAR     68  64  88 S3        30.07F
NORTH VERNON + CLEAR     68  68 100 S6        30.05S
SEYMOUR +      CLEAR     70  66  88 S6        30.03F

$$



USA.gov is the U.S. government's official web portal to all federal, state and local government web resources and services.